Preview of NWS' New Version of Forecast
This preview is not operational and should not be used for support decisions.

Regional Weather Roundup (RWR)

Issued by Gray - Portland, ME (GYX)

                            
350 
ASUS41 KGYX 261110
RWRGYX
WEATHER ROUNDUP FOR MAINE AND NEW HAMPSHIRE
NATIONAL WEATHER SERVICE GRAY ME
700 AM EDT TUE MAR 26 2019

MEZ002-005-006-010-012-015-018-020-021-024-026-027-029-261200-
MAINE
  
CITY           SKY/WX    TMP DP  RH WIND       PRES   REMARKS
PORTLAND       FAIR      22   9  57 W5        30.21R                  
SANFORD        FAIR      14  12  92 NW5       30.20R                  
BAR HARBOR     FAIR      23   7  50 W6        30.18R                  
WISCASSET      FAIR      17  12  80 CALM      30.21R                  
ROCKLAND       FAIR      20  10  65 NW5       30.19R                  
FRYEBURG       FAIR      14   5  67 VRB3      30.19R                  
LEWISTONAUBURN FAIR      19   8  62 N3        30.20R                  
AUGUSTA        FAIR      24   3  40 NW5       30.19R                  
WATERVILLE     FAIR      23   5  46 NW7       30.16R                  
BANGOR         FAIR      23   4  44 NW8       30.18R                  
GREENVILLE       N/A     13   0  56 NW6       30.06R                  
MILLINOCKET    FAIR      15   3  59 W5        30.15R                  
HOULTON        FAIR      10   3  73 CALM      30.10R                  
PRESQUE ISLE   FAIR      12   4  70 NW8       30.12R                  
FRENCHVILLE    FAIR       9  -5  53 NW10      30.07R WCI  -5          
CARIBOU        FAIR      10   0  63 NW7       30.09R                  
$$

NHZ002-005-008-009-011-012-014-261200-
NEW HAMPSHIRE
  
CITY           SKY/WX    TMP DP  RH WIND       PRES   REMARKS
PORTSMOUTH     CLEAR     26   4  39 W7        30.19R                  
ROCHESTER      FAIR      19  11  70 NW6       30.18R                  
NASHUA         FAIR      19  15  84 NW3       30.22R                  
MANCHESTER     FAIR      23  15  71 CALM      30.20R                  
CONCORD        FAIR      16  12  84 CALM      30.21R                  
LACONIA        FAIR      20   9  62 VRB3      30.19R                  
PLYMOUTH       FAIR      15  10  77 CALM      30.20R                  
BERLIN         FAIR      -2  -6  83 CALM      30.16R                  
WHITEFIELD     FAIR       4  -3  73 CALM      30.18R                  
JAFFREY        FAIR      20  12  71 CALM      30.17R                  
KEENE          FAIR      15  14  95 CALM      30.22R                  
LEBANON        FAIR      18  10  71 NE6       30.21R                  
MT WASHINGTON  FOG       -4  -4 100 NW62        N/A  VSB 3/16WCI -39  
$$

VTZ005-007-008-261200-
VERMONT
  
CITY           SKY/WX    TMP DP  RH WIND       PRES   REMARKS
ST JOHNSBURY     N/A      6   2  83 MISG      30.21R                  
MONTPELIER     FAIR      15   4  61 CALM      30.22R                  
BURLINGTON     FAIR      23   5  46 NW7       30.26R                  
$$

MAZ007-012-024-CTZ003-RIZ002-NYZ038-NYZ072-261200-
SOUTHERN NEW ENGLAND AND NY
  
CITY           SKY/WX    TMP DP  RH WIND       PRES   REMARKS
BOSTON         FAIR      33   4  29 N7        30.21R                  
WORCESTER      FAIR      27   2  34 N9        30.15R                  
NANTUCKET      FAIR      35  22  58 NE21      30.14R                  
PROVIDENCE     MOCLDY    32   6  33 N13       30.19R                  
HARTFORD       FAIR      28   4  35 N7        30.21R                  
ALBANY         FAIR      23   9  55 N5        30.26R                  
NEW YORK CITY  FAIR      33   6  32 N13       30.21R                  
$$

ANZ081-ANZ082-ANZ150-NHZ014-MEZ023>029-261200-
COASTAL MARINE OBSERVATIONS
  
STATION/POSITION TIME  TEMP    WIND        PRES    WAVE
                       AIR SEA DIR/SP/G            HT/PER
                 (UTC) (F)     (DEG/KT/KT) (MB)    (FT/S)
CASHES LEDGE BUO 1050   34 38              1022.0R   3/ 5
$$

.............KEY..............
   WCI - WIND CHILL
   TC  - TEMPERATURE IN CELSIUS
   VSB - VISIBILITY IN MILES
   HX  - HEAT INDEX
   FAIR- INDICATES FEW OR NO CLOUDS BELOW 12,000 FT, WITH NO 
         SIGNIFICANT WEATHER AND/OR OBSTRUCTIONS TO VISIBILITY.